User: anonymous   Login
Location: Julian California
(33.0790°N, 116.6010°W)
Time: 05:46:03
(UTC-07:00)
Language:

Cosmos 1697 Rocket - Orbit

View from above orbital plane
View from above orbital plane
View from above satellite
View from above satellite

Ground track
Ground track

The orbit data is extracted from the following two-line orbital elements,

1 16182U 85097B   19113.22466177 -.00000139  00000-0 -46035-4 0  9994
2 16182  71.0055  27.7787 0005843 139.4390 334.3042 14.16243143731790
Epoch (UTC): 23 April 2019 05:23:30
Eccentricity: 0.0005843
inclination: 71.0055°
perigee height: 834 km
apogee height: 842 km
right ascension of ascending node: 27.7787°
argument of perigee: 139.4390°
revolutions per day: 14.16243143
mean anomaly at epoch: 334.3042°
orbit number at epoch: 73179

The dashed part of the orbit path shows where the satellite is in the earth's shadow,  

DLR